Tracking 19644 objects as of 24-Apr-2019
HD Live streaming from Space Station
objects crossing your sky now

COSMOS 1249 COOLANT

Track COSMOS 1249 COOLANT now!
10-day predictions


NORAD ID: 26911
Int'l Code: 1981-021Q
Perigee: 899.1 km
Apogee: 966.8 km
Inclination: 65.0 °
Period: 103.5 minutes
Semi major axis: 7303 km
RCS: 0.0079 m2 (small)
Launch date: March 5, 1981
Source: Commonwealth of Independent States (former USSR) (CIS)
Launch site: TYURATAM MISSILE AND SPACE COMPLEX (TTMTR)

Note: This is SATELLITE DEBRIS
aabbcc
Your satellite tracking list
Your tracking list is empty




NASA's NSSDC Master Catalog

Two Line Element Set (TLE):
1 26911U 81021Q   19113.95798819 -.00000040 +00000-0 +40283-4 0  9998
2 26911 064.9631 322.4074 0046334 000.4049 067.5402 13.90813327294454
Source of the keplerian elements: AFSPC